Location: Long Barn
(38.0930°N, 120.1344°W)
Time: 06:26:03
(UTC+00:00)

BlueWalker 3 - Pass Details

Date: 29 January 2026
Orbit: 450 x 461 km, 53.2° (Epoch: 11 February)

Event Time Altitude Azimuth Distance (km) Brightness Sun altitude
Rises 01:50:19 0° 290° (WNW) 2,455 6.4 -6.6°
Reaches altitude 10° 01:54:41 10° 341° (NNW) 1,583 4.5 -7.4°
Maximum altitude 01:54:51 10° 343° (NNW) 1,581 4.5 -7.4°
Drops below altitude 10° 01:55:02 10° 346° (NNW) 1,583 4.4 -7.5°
Enters shadow 01:58:21 - 29° (NNE) 2,147 4.7 -8.1°
